| time (UTC) | temp F | wind direction | speed knots | gust knots | rain 1hr in | rain 24hr in | rain mn in | humidity % | barometer mb |
| 20260510082401 | 47 | 48 | 0.9 | 6.1 | 0.00 | 0.06 | 0.00 | 72 | 1022.1 |
| 20260510081901 | 47 | 81 | 4.3 | 7.8 | 0.00 | 0.06 | 0.00 | 74 | 1022.1 |
| 20260510080901 | 45 | 358 | 2.6 | 7.0 | 0.00 | 0.06 | 0.00 | 73 | 1022.1 |
| 20260510080401 | 45 | 47 | 2.6 | 10.4 | 0.00 | 0.06 | 0.00 | 73 | 1022.1 |
| 20260510075901 | 46 | 10 | 2.6 | 5.2 | 0.00 | 0.06 | 0.00 | 74 | 1022.1 |
| 20260510075401 | 46 | 59 | 2.6 | 6.1 | 0.00 | 0.06 | 0.00 | 74 | 1022.1 |
| 20260510074901 | 46 | 142 | 1.7 | 7.8 | 0.00 | 0.06 | 0.00 | 75 | 1022.0 |
| 20260510074400 | 46 | 55 | 0.9 | 2.6 | 0.00 | 0.06 | 0.00 | 78 | 1022.1 |
| 20260510073902 | 45 | 16 | 1.7 | 5.2 | 0.00 | 0.06 | 0.00 | 77 | 1022.1 |
| 20260510073401 | 45 | 52 | 2.6 | 7.8 | 0.00 | 0.06 | 0.00 | 78 | 1022.1 |
| 20260510072901 | 45 | 327 | 1.7 | 2.6 | 0.00 | 0.06 | 0.00 | 78 | 1022.1 |
| 20260510072401 | 44 | 341 | 1.7 | 10.4 | 0.00 | 0.06 | 0.00 | 78 | 1022.1 |
| 20260510071901 | 44 | 73 | 1.7 | 7.0 | 0.00 | 0.06 | 0.00 | 78 | 1022.0 |
| 20260510071401 | 44 | 238 | 1.7 | 6.1 | 0.00 | 0.06 | 0.00 | 79 | 1022.0 |
| 20260510070901 | 44 | 147 | 2.6 | 5.2 | 0.00 | 0.06 | 0.00 | 79 | 1021.9 |
| 20260510070401 | 44 | 325 | 2.6 | 5.2 | 0.00 | 0.06 | 0.00 | 80 | 1021.8 |
| 20260510065901 | 43 | 175 | 0.9 | 2.6 | 0.00 | 0.06 | 0.00 | 81 | 1021.8 |
| 20260510065401 | 43 | 89 | 1.7 | 7.8 | 0.00 | 0.06 | 0.00 | 81 | 1021.8 |
| 20260510064401 | 43 | 16 | 2.6 | 5.2 | 0.00 | 0.06 | 0.00 | 81 | 1021.7 |
| 20260510063901 | 43 | 190 | 1.7 | 6.1 | 0.00 | 0.06 | 0.00 | 82 | 1021.7 |
| 20260510063400 | 43 | 56 | 1.7 | 6.1 | 0.00 | 0.06 | 0.00 | 82 | 1021.7 |
| 20260510062902 | 42 | 55 | 3.5 | 7.0 | 0.00 | 0.06 | 0.00 | 83 | 1021.6 |
| 20260510061901 | 42 | 347 | 1.7 | 6.1 | 0.00 | 0.06 | 0.00 | 84 | 1021.5 |
| 20260510061401 | 42 | 4 | 2.6 | 6.1 | 0.00 | 0.06 | 0.00 | 84 | 1021.5 |
| 20260510060901 | 41 | 43 | 0.9 | 6.1 | 0.00 | 0.07 | 0.00 | 85 | 1021.4 |
| 20260510060400 | 41 | 18 | 1.7 | 6.1 | 0.00 | 0.07 | 0.00 | 86 | 1021.4 |
| 20260510055901 | 40 | 80 | 1.7 | 5.2 | 0.00 | 0.07 | 0.00 | 88 | 1021.5 |
| 20260510055400 | 40 | 335 | 1.7 | 6.1 | 0.00 | 0.07 | 0.00 | 89 | 1021.6 |
| 20260510054901 | 39 | 86 | 0.9 | 2.6 | 0.00 | 0.07 | 0.00 | 89 | 1021.6 |
| 20260510054401 | 39 | 71 | 0.9 | 2.6 | 0.00 | 0.07 | 0.00 | 89 | 1021.6 |
| 20260510053901 | 39 | 105 | 0.9 | 4.3 | 0.00 | 0.07 | 0.00 | 89 | 1021.7 |
| 20260510052900 | 39 | 236 | 0.9 | 2.6 | 0.00 | 0.07 | 0.00 | 89 | 1021.7 |
| 20260510052400 | 39 | 243 | 0.9 | 4.3 | 0.00 | 0.07 | 0.00 | 89 | 1021.7 |
| 20260510051400 | 39 | 249 | 2.6 | 4.3 | 0.00 | 0.07 | 0.00 | 89 | 1021.7 |
| 20260510050901 | 39 | 270 | 0.0 | 2.6 | 0.00 | 0.07 | 0.00 | 89 | 1021.8 |
| 20260510050402 | 38 | 270 | 0.9 | 1.7 | 0.00 | 0.07 | 0.00 | 89 | 1021.8 |
| 20260510045901 | 38 | 270 | 0.9 | 2.6 | 0.00 | 0.07 | 0.00 | 89 | 1021.9 |
| 20260510045401 | 39 | 270 | 0.0 | 1.7 | 0.00 | 0.07 | 0.00 | 89 | 1021.8 |
| 20260510044902 | 38 | 270 | 0.9 | 2.6 | 0.00 | 0.07 | 0.00 | 88 | 1021.9 |
| 20260510044401 | 39 | 298 | 0.0 | 0.9 | 0.00 | 0.07 | 0.00 | 88 | 1021.9 |
| 20260510043901 | 39 | 342 | 0.9 | 1.7 | 0.00 | 0.07 | 0.00 | 87 | 1021.9 |
| 20260510043401 | 39 | 342 | 0.0 | 1.7 | 0.00 | 0.07 | 0.00 | 87 | 1022.0 |
| 20260510042900 | 39 | 342 | 0.9 | 1.7 | 0.00 | 0.07 | 0.00 | 87 | 1022.0 |
| 20260510042400 | 39 | 347 | 0.9 | 2.6 | 0.00 | 0.07 | 0.00 | 87 | 1022.2 |
| 20260510041901 | 40 | 261 | 0.9 | 2.6 | 0.00 | 0.07 | 0.00 | 88 | 1022.2 |
| 20260510040901 | 40 | 285 | 1.7 | 4.3 | 0.00 | 0.07 | 0.00 | 88 | 1022.2 |
| 20260510040401 | 40 | 175 | 1.7 | 5.2 | 0.00 | 0.07 | 0.00 | 87 | 1022.2 |
| 20260510035901 | 40 | 249 | 0.0 | 2.6 | 0.00 | 0.07 | 0.00 | 87 | 1022.2 |
| 20260510035400 | 40 | 230 | 1.7 | 5.2 | 0.00 | 0.07 | 0.00 | 87 | 1022.2 |
| 20260510034901 | 40 | 150 | 0.9 | 2.6 | 0.00 | 0.07 | 0.00 | 87 | 1022.2 |
| 20260510034401 | 40 | 122 | 0.9 | 4.3 | 0.00 | 0.07 | 0.00 | 87 | 1022.2 |
| 20260510033400 | 40 | 317 | 1.7 | 2.6 | 0.00 | 0.07 | 0.00 | 87 | 1022.3 |
| 20260510032900 | 41 | 263 | 0.9 | 2.6 | 0.00 | 0.07 | 0.00 | 86 | 1022.3 |
| 20260510032401 | 41 | 201 | 0.9 | 2.6 | 0.00 | 0.07 | 0.00 | 86 | 1022.3 |
| 20260510031901 | 41 | 133 | 0.9 | 2.6 | 0.00 | 0.07 | 0.00 | 86 | 1022.4 |
| 20260510030400 | 41 | 32 | 1.7 | 6.1 | 0.00 | 0.07 | 0.00 | 86 | 1022.2 |
| 20260510025901 | 41 | 94 | 1.7 | 6.1 | 0.00 | 0.07 | 0.00 | 86 | 1022.1 |
| 20260510025401 | 41 | 145 | 1.7 | 7.0 | 0.00 | 0.07 | 0.00 | 86 | 1022.0 |
| 20260510023901 | 41 | 320 | 2.6 | 10.4 | 0.00 | 0.07 | 0.00 | 87 | 1021.7 |
| 20260510023401 | 42 | 21 | 2.6 | 10.4 | 0.00 | 0.07 | 0.00 | 87 | 1021.6 |
| 20260510022400 | 42 | 350 | 4.3 | 12.2 | 0.00 | 0.07 | 0.00 | 86 | 1021.6 |
| 20260510021901 | 42 | 3 | 2.6 | 11.3 | 0.00 | 0.07 | 0.00 | 87 | 1021.5 |
| 20260510021400 | 42 | 15 | 4.3 | 8.7 | 0.00 | 0.07 | 0.00 | 87 | 1021.5 |
| 20260510015901 | 42 | 357 | 2.6 | 8.7 | 0.00 | 0.07 | 0.00 | 87 | 1021.6 |
| 20260510015400 | 42 | 17 | 3.5 | 10.4 | 0.00 | 0.07 | 0.00 | 87 | 1021.6 |
| 20260510014901 | 42 | 158 | 3.5 | 7.8 | 0.00 | 0.07 | 0.00 | 87 | 1021.6 |
| 20260510014400 | 42 | 48 | 2.6 | 11.3 | 0.00 | 0.07 | 0.00 | 87 | 1021.6 |
| 20260510013901 | 42 | 15 | 4.3 | 10.4 | 0.00 | 0.07 | 0.00 | 87 | 1021.5 |
| 20260510012401 | 42 | 39 | 4.3 | 8.7 | 0.00 | 0.07 | 0.00 | 88 | 1021.5 |
| 20260510011401 | 42 | 22 | 5.2 | 11.3 | 0.00 | 0.07 | 0.00 | 88 | 1021.4 |
| 20260510010901 | 42 | 0 | 5.2 | 13.9 | 0.00 | 0.07 | 0.00 | 88 | 1021.5 |
| 20260510010400 | 42 | 342 | 4.3 | 8.7 | 0.00 | 0.07 | 0.00 | 88 | 1021.5 |
| 20260510005900 | 42 | 28 | 5.2 | 10.4 | 0.00 | 0.07 | 0.00 | 88 | 1021.5 |
| 20260510005400 | 43 | 1 | 5.2 | 22.6 | 0.00 | 0.07 | 0.00 | 87 | 1021.5 |
| 20260510004401 | 43 | 355 | 4.3 | 10.4 | 0.00 | 0.07 | 0.00 | 87 | 1021.6 |
| 20260510003401 | 43 | 6 | 5.2 | 12.2 | 0.00 | 0.07 | 0.00 | 87 | 1021.7 |
| 20260510002900 | 43 | 8 | 4.3 | 7.0 | 0.00 | 0.07 | 0.00 | 86 | 1021.8 |
| 20260510002401 | 43 | 20 | 4.3 | 11.3 | 0.00 | 0.07 | 0.00 | 87 | 1021.9 |
| 20260510001900 | 43 | 20 | 4.3 | 20.0 | 0.00 | 0.07 | 0.00 | 86 | 1021.9 |
| 20260510001400 | 43 | 18 | 5.2 | 11.3 | 0.00 | 0.07 | 0.00 | 86 | 1021.9 |
| 20260510000901 | 43 | 2 | 5.2 | 13.0 | 0.00 | 0.07 | 0.00 | 86 | 1021.8 |
| 20260510000400 | 44 | 23 | 4.3 | 12.2 | 0.00 | 0.07 | 0.00 | 86 | 1021.8 |
| 20260509235901 | 44 | 25 | 5.2 | 10.4 | 0.00 | 0.07 | 0.00 | 86 | 1021.7 |
| 20260509235400 | 44 | 337 | 2.6 | 11.3 | 0.00 | 0.07 | 0.00 | 86 | 1021.7 |
| 20260509234901 | 44 | 3 | 4.3 | 13.0 | 0.00 | 0.07 | 0.00 | 86 | 1021.7 |
| 20260509234400 | 44 | 19 | 5.2 | 11.3 | 0.00 | 0.07 | 0.00 | 86 | 1021.7 |
| 20260509233901 | 44 | 14 | 4.3 | 10.4 | 0.00 | 0.07 | 0.00 | 86 | 1021.7 |
| 20260509233400 | 44 | 8 | 5.2 | 14.8 | 0.00 | 0.07 | 0.00 | 85 | 1021.8 |
| 20260509232900 | 44 | 6 | 5.2 | 14.8 | 0.00 | 0.07 | 0.00 | 85 | 1021.8 |
| 20260509232400 | 44 | 24 | 5.2 | 13.0 | 0.00 | 0.07 | 0.00 | 85 | 1021.8 |
| 20260509231900 | 44 | 1 | 5.2 | 10.4 | 0.00 | 0.07 | 0.00 | 85 | 1021.8 |
| 20260509231400 | 44 | 27 | 5.2 | 11.3 | 0.00 | 0.07 | 0.00 | 85 | 1021.8 |
| 20260509230946 | 44 | 19 | 5.2 | 11.3 | 0.00 | 0.07 | 0.00 | 85 | 1021.7 |
| 20260509230400 | 44 | 355 | 5.2 | 15.6 | 0.00 | 0.07 | 0.00 | 85 | 1021.7 |
| 20260509225901 | 44 | 22 | 5.2 | 13.0 | 0.00 | 0.07 | 0.07 | 85 | 1021.6 |
| 20260509225400 | 44 | 0 | 4.3 | 11.3 | 0.00 | 0.07 | 0.07 | 86 | 1021.7 |
| 20260509224901 | 44 | 16 | 6.1 | 11.3 | 0.00 | 0.07 | 0.07 | 86 | 1021.7 |
| 20260509224400 | 44 | 4 | 6.1 | 12.2 | 0.00 | 0.07 | 0.07 | 86 | 1021.6 |
| 20260509223901 | 44 | 27 | 7.0 | 12.2 | 0.00 | 0.07 | 0.07 | 86 | 1021.6 |
| 20260509223400 | 44 | 0 | 6.1 | 11.3 | 0.00 | 0.07 | 0.07 | 86 | 1021.6 |
| 20260509222400 | 44 | 18 | 7.0 | 12.2 | 0.00 | 0.07 | 0.07 | 87 | 1021.6 |
| 20260509221901 | 44 | 1 | 5.2 | 13.9 | 0.00 | 0.07 | 0.07 | 87 | 1021.6 |
| 20260509221400 | 44 | 15 | 7.8 | 13.9 | 0.00 | 0.07 | 0.07 | 87 | 1021.6 |
| 20260509220401 | 44 | 345 | 4.3 | 10.4 | 0.00 | 0.07 | 0.07 | 86 | 1021.7 |
| 20260509215901 | 44 | 13 | 7.0 | 15.6 | 0.00 | 0.07 | 0.07 | 86 | 1021.8 |
| 20260509214901 | 44 | 10 | 5.2 | 10.4 | 0.00 | 0.07 | 0.07 | 86 | 1021.7 |
| 20260509214400 | 44 | 8 | 5.2 | 12.2 | 0.00 | 0.07 | 0.07 | 86 | 1021.8 |
| 20260509213901 | 44 | 14 | 7.0 | 14.8 | 0.00 | 0.07 | 0.07 | 86 | 1021.9 |
| 20260509213400 | 44 | 10 | 5.2 | 14.8 | 0.00 | 0.07 | 0.07 | 86 | 1021.8 |
| 20260509212401 | 44 | 23 | 5.2 | 10.4 | 0.00 | 0.07 | 0.07 | 86 | 1021.7 |
| 20260509211900 | 44 | 8 | 4.3 | 8.7 | 0.00 | 0.07 | 0.07 | 86 | 1021.7 |
| 20260509211400 | 44 | 0 | 5.2 | 10.4 | 0.00 | 0.07 | 0.07 | 85 | 1021.8 |
| 20260509210900 | 44 | 19 | 5.2 | 11.3 | 0.00 | 0.07 | 0.07 | 86 | 1021.8 |
| 20260509210400 | 44 | 358 | 6.1 | 13.9 | 0.00 | 0.07 | 0.07 | 86 | 1021.7 |
| 20260509205901 | 44 | 358 | 4.3 | 12.2 | 0.00 | 0.07 | 0.07 | 86 | 1021.7 |
| 20260509205400 | 44 | 24 | 5.2 | 13.9 | 0.00 | 0.07 | 0.07 | 85 | 1021.7 |
| 20260509204901 | 44 | 10 | 6.1 | 12.2 | 0.00 | 0.07 | 0.07 | 85 | 1021.7 |
| 20260509204400 | 44 | 7 | 5.2 | 12.2 | 0.00 | 0.07 | 0.07 | 85 | 1021.6 |
| 20260509203901 | 44 | 13 | 5.2 | 10.4 | 0.00 | 0.07 | 0.07 | 86 | 1021.7 |
| 20260509203401 | 44 | 19 | 4.3 | 10.4 | 0.00 | 0.07 | 0.07 | 86 | 1021.7 |
| 20260509202900 | 44 | 5 | 6.1 | 14.8 | 0.00 | 0.07 | 0.07 | 85 | 1021.6 |
| 20260509202400 | 44 | 3 | 7.0 | 13.0 | 0.00 | 0.07 | 0.07 | 86 | 1021.5 |
| 20260509201901 | 44 | 4 | 6.1 | 12.2 | 0.00 | 0.07 | 0.07 | 86 | 1021.4 |
| 20260509201400 | 44 | 6 | 7.8 | 13.9 | 0.00 | 0.07 | 0.07 | 86 | 1021.4 |
| 20260509200400 | 44 | 15 | 6.1 | 15.6 | 0.00 | 0.07 | 0.07 | 85 | 1021.4 |
| 20260509195900 | 44 | 21 | 7.0 | 12.2 | 0.00 | 0.07 | 0.07 | 85 | 1021.3 |
| 20260509195359 | 44 | 11 | 5.2 | 17.4 | 0.00 | 0.07 | 0.07 | 85 | 1021.2 |
| 20260509194401 | 44 | 20 | 6.1 | 17.4 | 0.00 | 0.07 | 0.07 | 85 | 1021.2 |
| 20260509193901 | 44 | 5 | 7.8 | 17.4 | 0.00 | 0.07 | 0.07 | 85 | 1021.1 |
| 20260509193400 | 44 | 4 | 7.8 | 17.4 | 0.00 | 0.07 | 0.07 | 85 | 1021.1 |
| 20260509192900 | 44 | 4 | 6.1 | 13.9 | 0.00 | 0.07 | 0.07 | 85 | 1021.0 |
| 20260509192400 | 44 | 1 | 7.8 | 15.6 | 0.00 | 0.07 | 0.07 | 86 | 1021.0 |
| 20260509191901 | 44 | 350 | 8.7 | 14.8 | 0.00 | 0.07 | 0.07 | 86 | 1020.9 |
| 20260509191400 | 44 | 355 | 7.0 | 17.4 | 0.00 | 0.07 | 0.07 | 86 | 1020.7 |
| 20260509190900 | 44 | 3 | 8.7 | 13.9 | 0.00 | 0.07 | 0.07 | 86 | 1020.8 |
| 20260509190400 | 44 | 25 | 7.0 | 13.9 | 0.00 | 0.07 | 0.07 | 87 | 1020.8 |
| 20260509185900 | 44 | 3 | 7.8 | 11.3 | 0.00 | 0.07 | 0.07 | 87 | 1020.8 |
| 20260509185400 | 44 | 14 | 7.8 | 14.8 | 0.00 | 0.07 | 0.07 | 87 | 1020.8 |
| 20260509184900 | 44 | 7 | 6.1 | 20.0 | 0.00 | 0.07 | 0.07 | 87 | 1020.8 |
| 20260509184400 | 44 | 11 | 6.1 | 15.6 | 0.00 | 0.07 | 0.07 | 87 | 1020.9 |
| 20260509183900 | 44 | 22 | 7.8 | 13.9 | 0.00 | 0.07 | 0.07 | 88 | 1021.0 |
| 20260509183400 | 44 | 25 | 7.8 | 13.9 | 0.00 | 0.07 | 0.07 | 87 | 1021.0 |
| 20260509182900 | 44 | 14 | 7.8 | 13.0 | 0.00 | 0.07 | 0.07 | 87 | 1020.8 |
| 20260509182400 | 44 | 1 | 6.1 | 15.6 | 0.00 | 0.07 | 0.07 | 87 | 1020.9 |
| 20260509181900 | 44 | 16 | 8.7 | 15.6 | 0.00 | 0.07 | 0.07 | 87 | 1020.9 |
| 20260509181400 | 44 | 8 | 7.0 | 14.8 | 0.00 | 0.07 | 0.07 | 87 | 1020.9 |
| 20260509175900 | 45 | 13 | 7.8 | 17.4 | 0.00 | 0.07 | 0.07 | 87 | 1020.9 |
| 20260509175400 | 45 | 359 | 4.3 | 10.4 | 0.00 | 0.07 | 0.07 | 87 | 1020.9 |
| 20260509174901 | 45 | 5 | 5.2 | 13.0 | 0.00 | 0.07 | 0.07 | 87 | 1020.9 |
| 20260509174400 | 45 | 348 | 6.1 | 13.0 | 0.00 | 0.07 | 0.07 | 87 | 1020.8 |
| 20260509173901 | 45 | 23 | 7.8 | 13.0 | 0.00 | 0.07 | 0.07 | 87 | 1020.5 |
| 20260509173400 | 45 | 7 | 6.1 | 10.4 | 0.00 | 0.07 | 0.07 | 88 | 1020.5 |
| 20260509172900 | 45 | 5 | 6.1 | 13.0 | 0.00 | 0.07 | 0.07 | 88 | 1020.3 |
| 20260509172401 | 46 | 7 | 7.0 | 12.2 | 0.00 | 0.07 | 0.07 | 88 | 1020.4 |
| 20260509171900 | 46 | 6 | 7.0 | 12.2 | 0.00 | 0.07 | 0.07 | 87 | 1020.3 |
| 20260509171400 | 46 | 8 | 7.8 | 17.4 | 0.00 | 0.07 | 0.07 | 87 | 1020.4 |
| 20260509170900 | 46 | 4 | 5.2 | 11.3 | 0.00 | 0.07 | 0.07 | 87 | 1020.4 |
| 20260509170400 | 46 | 352 | 6.1 | 13.0 | 0.00 | 0.07 | 0.07 | 88 | 1020.5 |
| 20260509165900 | 46 | 349 | 4.3 | 10.4 | 0.00 | 0.07 | 0.07 | 87 | 1020.5 |
| 20260509165359 | 46 | 10 | 7.8 | 13.9 | 0.00 | 0.07 | 0.07 | 87 | 1020.4 |
| 20260509164900 | 46 | 357 | 6.1 | 13.0 | 0.00 | 0.07 | 0.07 | 87 | 1020.4 |
| 20260509164400 | 46 | 5 | 6.1 | 11.3 | 0.00 | 0.07 | 0.07 | 87 | 1020.3 |
| 20260509163900 | 46 | 0 | 7.8 | 13.9 | 0.00 | 0.07 | 0.07 | 87 | 1020.2 |
| 20260509163400 | 46 | 1 | 5.2 | 13.9 | 0.00 | 0.07 | 0.07 | 87 | 1020.3 |
| 20260509162901 | 46 | 20 | 5.2 | 11.3 | 0.00 | 0.07 | 0.07 | 87 | 1020.1 |
| 20260509161900 | 47 | 16 | 5.2 | 13.0 | 0.00 | 0.07 | 0.07 | 88 | 1020.2 |
| 20260509160900 | 47 | 5 | 7.8 | 12.2 | 0.00 | 0.07 | 0.07 | 87 | 1020.1 |
| 20260509160400 | 47 | 11 | 6.1 | 14.8 | 0.00 | 0.07 | 0.07 | 87 | 1019.8 |
| 20260509155359 | 47 | 21 | 6.1 | 13.0 | 0.00 | 0.07 | 0.07 | 87 | 1020.0 |
| 20260509154900 | 48 | 13 | 6.1 | 15.6 | 0.00 | 0.07 | 0.07 | 87 | 1019.8 |
| 20260509154401 | 48 | 12 | 7.0 | 13.9 | 0.00 | 0.07 | 0.07 | 88 | 1019.8 |
| 20260509153900 | 48 | 356 | 6.1 | 13.9 | 0.00 | 0.07 | 0.07 | 87 | 1019.9 |
| 20260509153400 | 48 | 14 | 6.1 | 13.9 | 0.00 | 0.07 | 0.07 | 87 | 1019.8 |
| 20260509152900 | 48 | 13 | 6.1 | 12.2 | 0.00 | 0.07 | 0.07 | 88 | 1019.8 |
| 20260509152401 | 48 | 18 | 3.5 | 8.7 | 0.00 | 0.07 | 0.07 | 87 | 1019.8 |
| 20260509151900 | 48 | 8 | 5.2 | 10.4 | 0.00 | 0.07 | 0.07 | 87 | 1019.8 |
| 20260509151400 | 49 | 6 | 5.2 | 10.4 | 0.00 | 0.07 | 0.07 | 87 | 1019.8 |
| 20260509150900 | 49 | 15 | 4.3 | 8.7 | 0.00 | 0.07 | 0.07 | 87 | 1019.9 |
| 20260509150400 | 49 | 358 | 5.2 | 11.3 | 0.00 | 0.07 | 0.07 | 87 | 1019.9 |
| 20260509145900 | 49 | 13 | 6.1 | 10.4 | 0.00 | 0.09 | 0.07 | 87 | 1019.9 |
| 20260509145400 | 49 | 14 | 5.2 | 10.4 | 0.00 | 0.12 | 0.07 | 87 | 1019.9 |
| 20260509143900 | 50 | 1 | 2.6 | 11.3 | 0.00 | 0.12 | 0.07 | 87 | 1019.9 |
| 20260509143400 | 50 | 5 | 4.3 | 11.3 | 0.00 | 0.12 | 0.07 | 87 | 1019.8 |
| 20260509142900 | 50 | 351 | 4.3 | 11.3 | 0.00 | 0.12 | 0.07 | 87 | 1019.7 |
| 20260509142401 | 50 | 8 | 5.2 | 8.7 | 0.00 | 0.12 | 0.07 | 86 | 1019.7 |
| 20260509141900 | 50 | 21 | 6.1 | 13.0 | 0.00 | 0.12 | 0.07 | 86 | 1019.7 |
| 20260509141400 | 51 | 6 | 4.3 | 7.8 | 0.00 | 0.12 | 0.07 | 87 | 1019.7 |
| 20260509140900 | 50 | 13 | 4.3 | 10.4 | 0.00 | 0.12 | 0.07 | 86 | 1019.7 |
| 20260509140400 | 51 | 16 | 5.2 | 10.4 | 0.00 | 0.12 | 0.07 | 86 | 1019.7 |
| 20260509135900 | 51 | 14 | 2.6 | 11.3 | 0.00 | 0.12 | 0.07 | 86 | 1019.8 |
| 20260509135400 | 51 | 353 | 4.3 | 8.7 | 0.00 | 0.12 | 0.07 | 85 | 1019.8 |
| 20260509134900 | 51 | 3 | 2.6 | 8.7 | 0.00 | 0.12 | 0.07 | 85 | 1019.7 |
| 20260509134359 | 51 | 349 | 3.5 | 8.7 | 0.00 | 0.12 | 0.07 | 85 | 1019.7 |
| 20260509133900 | 51 | 4 | 5.2 | 10.4 | 0.00 | 0.12 | 0.07 | 85 | 1019.7 |
| 20260509133400 | 51 | 9 | 2.6 | 10.4 | 0.00 | 0.12 | 0.07 | 85 | 1019.8 |
| 20260509132900 | 52 | 351 | 3.5 | 10.4 | 0.00 | 0.12 | 0.07 | 86 | 1019.8 |
| 20260509132401 | 52 | 356 | 4.3 | 7.8 | 0.00 | 0.12 | 0.07 | 86 | 1019.7 |
| 20260509131902 | 52 | 357 | 5.2 | 10.4 | 0.00 | 0.12 | 0.07 | 85 | 1019.7 |
| 20260509131401 | 52 | 17 | 6.1 | 10.4 | 0.00 | 0.12 | 0.07 | 86 | 1019.7 |
| 20260509130400 | 52 | 358 | 1.7 | 7.8 | 0.00 | 0.12 | 0.07 | 88 | 1019.7 |
| 20260509125900 | 51 | 347 | 1.7 | 6.1 | 0.00 | 0.12 | 0.07 | 88 | 1019.7 |
| 20260509125359 | 51 | 17 | 4.3 | 11.3 | 0.00 | 0.12 | 0.07 | 87 | 1019.8 |
| 20260509124900 | 51 | 17 | 2.6 | 8.7 | 0.00 | 0.12 | 0.07 | 89 | 1019.8 |
| 20260509122400 | 52 | 5 | 1.7 | 5.2 | 0.00 | 0.12 | 0.07 | 88 | 1019.8 |
| 20260509121900 | 52 | 9 | 3.5 | 7.0 | 0.00 | 0.12 | 0.07 | 88 | 1019.8 |
| 20260509121400 | 52 | 4 | 3.5 | 8.7 | 0.00 | 0.12 | 0.07 | 87 | 1019.8 |
| 20260509120859 | 52 | 12 | 1.7 | 5.2 | 0.00 | 0.12 | 0.07 | 87 | 1019.8 |
| 20260509120400 | 52 | 6 | 2.6 | 6.1 | 0.00 | 0.12 | 0.07 | 87 | 1019.8 |
| 20260509115900 | 53 | 24 | 1.7 | 5.2 | 0.00 | 0.12 | 0.07 | 87 | 1019.8 |
| 20260509114859 | 53 | 31 | 1.7 | 6.1 | 0.00 | 0.12 | 0.07 | 88 | 1019.7 |
| 20260509114400 | 53 | 358 | 4.3 | 7.0 | 0.00 | 0.13 | 0.07 | 88 | 1019.7 |
| 20260509113859 | 53 | 348 | 3.5 | 7.8 | 0.00 | 0.14 | 0.07 | 88 | 1019.7 |
| 20260509113400 | 53 | 0 | 4.3 | 7.0 | 0.00 | 0.15 | 0.07 | 89 | 1019.7 |
| 20260509112359 | 53 | 357 | 4.3 | 7.8 | 0.00 | 0.17 | 0.07 | 89 | 1019.7 |
| 20260509111359 | 52 | 45 | 1.7 | 8.7 | 0.00 | 0.21 | 0.07 | 90 | 1019.7 |
| 20260509110900 | 52 | 14 | 2.6 | 7.8 | 0.00 | 0.21 | 0.07 | 90 | 1019.7 |
| 20260509110400 | 52 | 27 | 2.6 | 6.1 | 0.01 | 0.21 | 0.07 | 90 | 1019.7 |
| 20260509105900 | 52 | 2 | 2.6 | 6.1 | 0.01 | 0.21 | 0.07 | 91 | 1019.7 |
| 20260509104900 | 52 | 8 | 1.7 | 4.3 | 0.02 | 0.21 | 0.07 | 91 | 1019.7 |
| 20260509104400 | 52 | 19 | 1.7 | 4.3 | 0.05 | 0.21 | 0.07 | 91 | 1019.8 |
| 20260509103900 | 52 | 64 | 1.7 | 5.2 | 0.06 | 0.21 | 0.07 | 91 | 1019.9 |
| 20260509103401 | 51 | 15 | 0.9 | 2.6 | 0.06 | 0.21 | 0.07 | 91 | 1019.9 |
| 20260509102900 | 51 | 48 | 0.9 | 2.6 | 0.06 | 0.21 | 0.07 | 91 | 1019.9 |
| 20260509102400 | 51 | 12 | 0.9 | 2.6 | 0.06 | 0.21 | 0.07 | 90 | 1020.0 |
| 20260509101900 | 51 | 348 | 0.9 | 2.6 | 0.06 | 0.21 | 0.07 | 90 | 1020.0 |
| 20260509095900 | 52 | 20 | 1.7 | 4.3 | 0.05 | 0.20 | 0.06 | 88 | 1019.9 |
| 20260509095400 | 52 | 23 | 1.7 | 2.6 | 0.04 | 0.20 | 0.06 | 88 | 1019.8 |
| 20260509094859 | 52 | 9 | 1.7 | 2.6 | 0.03 | 0.19 | 0.05 | 87 | 1019.8 |
| 20260509094359 | 52 | 9 | 1.7 | 2.6 | 0.01 | 0.17 | 0.02 | 85 | 1019.8 |
| 20260509093900 | 53 | 18 | 1.7 | 6.1 | 0.00 | 0.16 | 0.02 | 84 | 1019.7 |
| 20260509093359 | 53 | 13 | 1.7 | 4.3 | 0.00 | 0.16 | 0.02 | 84 | 1019.6 |
| 20260509092900 | 53 | 21 | 1.7 | 5.2 | 0.00 | 0.16 | 0.02 | 84 | 1019.5 |
| 20260509092400 | 53 | 34 | 1.7 | 6.1 | 0.00 | 0.16 | 0.02 | 84 | 1019.6 |
| 20260509091900 | 53 | 41 | 1.7 | 5.2 | 0.00 | 0.16 | 0.02 | 84 | 1019.5 |
| 20260509091400 | 53 | 4 | 3.5 | 6.1 | 0.00 | 0.16 | 0.02 | 85 | 1019.4 |
| 20260509090859 | 53 | 35 | 1.7 | 4.3 | 0.00 | 0.16 | 0.02 | 85 | 1019.5 |
| 20260509090400 | 53 | 37 | 1.7 | 5.2 | 0.00 | 0.16 | 0.02 | 85 | 1019.5 |
| 20260509085900 | 53 | 20 | 1.7 | 5.2 | 0.00 | 0.16 | 0.02 | 86 | 1019.5 |
| 20260509085401 | 53 | 23 | 1.7 | 6.1 | 0.00 | 0.16 | 0.02 | 86 | 1019.6 |
| 20260509084859 | 53 | 33 | 2.6 | 7.8 | 0.00 | 0.16 | 0.02 | 86 | 1019.5 |
| 20260509083900 | 53 | 4 | 1.7 | 4.3 | 0.00 | 0.16 | 0.02 | 87 | 1019.5 |
| 20260509083400 | 52 | 71 | 1.7 | 6.1 | 0.00 | 0.16 | 0.02 | 86 | 1019.5 |
| 20260509082900 | 52 | 344 | 1.7 | 6.1 | 0.00 | 0.16 | 0.02 | 87 | 1019.5 |